Content
SEND FEEDBACK

Daily
Averages
Monthly
Summary
United States of America

LAUGHLIN, NEVADA


Home > North America > United States > Nevada
Elevation: 1018 feet     Latitude: 35 10N     Longitude: 114 37W

WEATHER
 
SELECT A DAY
Number of Records: 189,103;   Date Range: 7/1/96 - 10/23/14
 
SHARE

PRINT THIS DATA

[ ← Previous Day ]
WEATHER ALMANAC - JULY 11, 2013
[ Next Day → ]
[ °C ]   °F
Weather ElementAverageHighLow
Temperature87.3 °F93.2 °F (12:35 am)75.2 °F (10:15 am)
Dewpoint64.2 °F71.6 °F (10:15 am)59 °F (3:55 am)
Humidity47.4 %89 % (10:15 am)34 % (12:35 am)
Barometer29.86 in29.98 in (9:55 am)29.79 in (12:35 am)
Wind Speed9.6 mph31.1 mph (8:35 am)
Wind Gust39.1 mph (8:35 am)
Weather ElementAverage
Visibility9.8 mi
Wind DirectionSSE (167.7 °)

Weather ElementTotal
Precipitation0.14 in
Cooling Degree Days19.2 (Base 65)
Growing Degree Days34.2 (Base 50)
Averaged from 71 records on July 11, 2013
WEATHER CONDITIONS BREAKOUT
WIND DIRECTION BREAKOUT
WEATHER BY HOUR - JULY 11, 2013
[ °C ]   °F
Local TimeTemperatureDewpointHumidityBarometerVisibilityWind DirectionWind SpeedGust SpeedPrecipitationEventsConditions
12:35 AM93.2 °F60.8 °F34 %29.79 in10.0 miSSE (160°)16.1 mphClear
12:55 AM93.2 °F60.8 °F34 %29.80 in10.0 miSSE (160°)17.3 mphClear
1:15 AM93.2 °F60.8 °F34 %29.80 in10.0 miSouth (170°)13.8 mphClear
1:35 AM93.2 °F60.8 °F34 %29.81 in10.0 miSSE (160°)11.5 mphClear
1:55 AM93.2 °F60.8 °F34 %29.80 in10.0 miSouth (180°)13.8 mphClear
2:15 AM93.2 °F60.8 °F34 %29.80 in10.0 miSouth (170°)13.8 mphClear
2:35 AM93.2 °F62.6 °F36 %29.80 in10.0 miSSE (160°)12.7 mphClear
2:55 AM91.4 °F62.6 °F38 %29.80 in10.0 miSouth (170°)15.0 mphClear
3:15 AM91.4 °F60.8 °F36 %29.80 in10.0 miSouth (180°)12.7 mphClear
3:35 AM91.4 °F60.8 °F36 %29.80 in10.0 miSouth (190°)11.5 mphClear
3:55 AM91.4 °F59.0 °F34 %29.81 in10.0 miSSW (200°)9.2 mphThunderstormClear
4:15 AM89.6 °F62.6 °F40 %29.81 in10.0 miSW (220°)10.4 mphClear
4:35 AM89.6 °F62.6 °F40 %29.82 in10.0 miSSW (200°)9.2 mphClear
4:55 AM87.8 °F62.6 °F43 %29.82 in10.0 miSouth (190°)9.2 mphClear
5:15 AM89.6 °F60.8 °F38 %29.82 in10.0 miSouth (170°)12.7 mphClear
5:35 AM86.0 °F64.4 °F48 %29.83 in10.0 miSSW (210°)6.9 mphClear
5:55 AM84.2 °F64.4 °F51 %29.84 in10.0 miSW (220°)8.1 mphClear
6:15 AM86.0 °F64.4 °F48 %29.85 in10.0 miSSW (210°)3.5 mphClear
6:35 AM86.0 °F62.6 °F45 %29.85 in10.0 miSSW (200°)6.9 mphClear
6:55 AM86.0 °F62.6 °F45 %29.86 in10.0 miSSW (210°)10.4 mphClear
7:15 AM87.8 °F62.6 °F43 %29.87 in10.0 miSouth (180°)20.7 mph24.2 mphScattered Clouds
7:35 AM89.6 °F60.8 °F38 %29.88 in10.0 miSSE (160°)28.8 mph38.0 mphMostly Cloudy
7:55 AM89.6 °F60.8 °F38 %29.89 in10.0 miSouth (170°)29.9 mph36.8 mphOvercast
8:15 AM89.6 °F60.8 °F38 %29.91 in10.0 miSouth (190°)25.3 mph34.5 mphScattered Clouds
8:35 AM87.8 °F62.6 °F43 %29.91 in10.0 miSouth (180°)31.1 mph39.1 mphMostly Cloudy
8:55 AM86.0 °F62.6 °F45 %29.93 in10.0 miSSE (160°)31.1 mph36.8 mphMostly Cloudy
9:15 AM84.2 °F64.4 °F51 %29.96 in10.0 miSSW (200°)24.2 mph29.9 mphMostly Cloudy
9:35 AM80.6 °F66.2 °F61 %29.97 in10.0 miSSW (210°)18.4 mph25.3 mphMostly Cloudy
9:55 AM78.8 °F68.0 °F69 %29.98 in7.0 miSSW (210°)17.3 mph23.0 mphThunderstormMostly Cloudy
10:15 AM75.2 °F71.6 °F89 %29.98 in3.0 miSouth (170°)9.2 mph0.04 inThunderstormHaze
10:35 AM75.2 °F71.6 °F89 %29.98 in8.0 miSE (130°)9.2 mph0.05 inMostly Cloudy
10:55 AM77.0 °F71.6 °F83 %29.97 in10.0 miESE (120°)10.4 mph0.05 inPartly Cloudy
11:15 AM77.0 °F71.6 °F83 %29.97 in10.0 miSE (130°)10.4 mphScattered Clouds
11:35 AM78.8 °F66.2 °F65 %29.96 in10.0 miSE (140°)4.6 mphPartly Cloudy
11:55 AM80.6 °F68.0 °F65 %29.96 in10.0 miSSE (160°)4.6 mphPartly Cloudy
12:15 PM80.6 °F68.0 °F65 %29.96 in10.0 miCalmClear
12:35 PM82.4 °F69.8 °F66 %29.95 in10.0 miSouth (180°)3.5 mphClear
12:55 PM82.4 °F66.2 °F58 %29.95 in10.0 miSSE (160°)4.6 mphClear
1:15 PM84.2 °F66.2 °F55 %29.94 in10.0 miESE (110°)3.5 mphClear
1:35 PM86.0 °F66.2 °F51 %29.92 in10.0 miSouth (190°)3.5 mphClear
1:55 PM86.0 °F64.4 °F48 %29.92 in10.0 miWSW (250°)4.6 mphPartly Cloudy
2:15 PM86.0 °F64.4 °F48 %29.90 in10.0 miSW (220°)4.6 mphScattered Clouds
2:35 PM86.0 °F64.4 °F48 %29.89 in10.0 miSW (230°)6.9 mphScattered Clouds
2:55 PM87.8 °F64.4 °F46 %29.88 in10.0 miWSW (240°)5.8 mphClear
3:15 PM89.6 °F64.4 °F43 %29.87 in10.0 miWSW (240°)6.9 mphClear
3:35 PM89.6 °F64.4 °F43 %29.86 in10.0 miSW (230°)6.9 mphPartly Cloudy
3:55 PM89.6 °F64.4 °F43 %29.86 in10.0 miSW (220°)6.9 mphMostly Cloudy
4:15 PM91.4 °F64.4 °F41 %29.85 in10.0 miSSW (200°)12.7 mphPartly Cloudy
4:35 PM89.6 °F64.4 °F43 %29.84 in10.0 miSW (220°)11.5 mphClear
4:55 PM89.6 °F64.4 °F43 %29.84 in10.0 miSW (220°)10.4 mph17.3 mphClear
5:15 PM89.6 °F64.4 °F43 %29.83 in10.0 miSW (220°)11.5 mphClear
5:35 PM91.4 °F64.4 °F41 %29.82 in10.0 miSSW (210°)11.5 mphClear
5:55 PM89.6 °F62.6 °F40 %29.82 in10.0 miSouth (190°)9.2 mphClear
6:15 PM89.6 °F62.6 °F40 %29.82 in10.0 miSSW (200°)9.2 mphClear
6:35 PM91.4 °F64.4 °F41 %29.82 in10.0 miSW (230°)4.6 mphClear
6:55 PM91.4 °F62.6 °F38 %29.82 in10.0 miSSW (210°)6.9 mphClear
7:15 PM89.6 °F62.6 °F40 %29.82 in10.0 miSSW (200°)5.8 mphClear
7:35 PM89.6 °F64.4 °F43 %29.82 in10.0 miSW (220°)6.9 mphClear
7:55 PM89.6 °F64.4 °F43 %29.82 in10.0 miWSW (240°)4.6 mphClear
8:15 PM89.6 °F64.4 °F43 %29.82 in10.0 miCalmClear
8:35 PM87.8 °F64.4 °F46 %29.83 in10.0 miCalmClear
8:55 PM87.8 °F64.4 °F46 %29.83 in10.0 miCalmClear
9:15 PM87.8 °F64.4 °F46 %29.84 in10.0 miCalmClear
9:35 PM87.8 °F64.4 °F46 %29.84 in10.0 miCalmClear
9:55 PM86.0 °F64.4 °F48 %29.84 in10.0 miCalmClear
10:15 PM86.0 °F64.4 °F48 %29.84 in10.0 miSouth (180°)3.5 mphClear
10:35 PM86.0 °F64.4 °F48 %29.84 in10.0 miSSE (160°)3.5 mphClear
10:55 PM86.0 °F66.2 °F51 %29.84 in10.0 miSE (140°)4.6 mphClear
11:15 PM86.0 °F66.2 °F51 %29.84 in10.0 miSE (140°)3.5 mphClear
11:35 PM86.0 °F66.2 °F51 %29.84 in10.0 miSE (130°)3.5 mphClear
11:55 PM86.0 °F66.2 °F51 %29.84 in10.0 miEast (90°)3.5 mphClear
Hourly data recorded from KIFP, located miles away from Laughlin, Nevada







STORIES FROM OUR PARTNERS